This is the latest recevied weather packets stored in our database for station/object EA1FBN. If no packets are shown the sender has not sent any weather packets the latest 10 day(s).
| Time | Temp. | Humidity | Pressure | Rain* | Wind** | Luminosity | Snow |
|---|---|---|---|---|---|---|---|
| 1777711525 | 15° C | 34% | 1017 hPa | 0 mm | - | - | - |
| 1777711225 | 15° C | 32% | 1017 hPa | 0 mm | - | - | - |
| 1777710925 | 15° C | 30% | 1017.1 hPa | 0 mm | - | - | - |
| 1777710625 | 15° C | 30% | 1017.2 hPa | 0 mm | - | - | - |
| 1777710325 | 15° C | 30% | 1017.1 hPa | 0 mm | - | - | - |
| 1777710025 | 15° C | 30% | 1017.1 hPa | 0 mm | - | - | - |
| 1777709725 | 14.44° C | 30% | 1017.4 hPa | 0 mm | - | - | - |
| 1777709425 | 14.44° C | 30% | 1017.4 hPa | 0 mm | - | - | - |
| 1777709125 | 13.89° C | 31% | 1017.3 hPa | 0 mm | - | - | - |
| 1777708825 | 13.89° C | 31% | 1017.1 hPa | 0 mm | - | - | - |
| 1777708525 | 13.33° C | 32% | 1017 hPa | 0 mm | - | - | - |
| 1777708225 | 13.89° C | 31% | 1017 hPa | 0 mm | - | - | - |
| 1777707925 | 13.33° C | 32% | 1017.2 hPa | 0 mm | - | - | - |
| 1777707625 | 13.33° C | 32% | 1017.2 hPa | 0 mm | - | - | - |
| 1777707325 | 13.33° C | 32% | 1017.1 hPa | 0 mm | - | - | - |
| 1777707025 | 13.33° C | 32% | 1017 hPa | 0 mm | - | - | - |
| 1777706725 | 13.33° C | 32% | 1017.1 hPa | 0 mm | - | - | - |
| 1777706425 | 13.33° C | 32% | 1017.1 hPa | 0 mm | - | - | - |
| 1777706125 | 13.33° C | 32% | 1017.1 hPa | 0 mm | - | - | - |
| 1777705825 | 13.33° C | 33% | 1017 hPa | 0 mm | - | - | - |
| 1777705525 | 12.78° C | 33% | 1017 hPa | 0 mm | - | - | - |
| 1777705225 | 12.78° C | 34% | 1017.1 hPa | 0 mm | - | - | - |
| 1777704925 | 12.78° C | 34% | 1017.2 hPa | 0 mm | - | - | - |
| 1777704625 | 12.22° C | 34% | 1017.3 hPa | 0 mm | - | - | - |
| 1777704325 | 12.22° C | 34% | 1017.3 hPa | 0 mm | - | - | - |
* Rain latest hour (hover to see other rain measurements)
** Current wind speed in m/s (hover to see current wind gust speed)